[[{"header":{"parameterUnit":"m.s-1","parameterCategory":1,"la1":30.2991,"la2":30.254,"lo1":-89.0895,"lo2":-89.0444,"dy":0.0017,"dx":0.0017,"nx":28,"ny":28,"refTime":"2024-04-07T21:00:00:Z","depth":0,"parameterNumber":2,"parameterNumberName":"U-component_of_WINDS"},"data":[0,0,0,0,0,0,0,0,0,0,0,0,0,0,0,0,0,0,0,0,0,0,0,0,0,0,0,0,0,0,0,0,0,0,0,0,0,0,0,0,0,0,0,0,0,0,0,0,0,0,0,0,0,0,0,0,0,0,-5.4239,-5.4239,0,-5.4268,-5.4269,-5.4269,-5.4225,-5.4223,-5.4222,-5.422,-5.425,-5.4253,-5.4255,0,0,0,0,0,0,0,0,0,0,0,0,0,-5.4145,-5.4147,-5.4239,-5.4239,-5.424,-5.4268,-5.4269,-5.4269,-5.4225,-5.4223,-5.4221,-5.422,-5.425,-5.4252,-5.4255,0,0,0,0,0,0,0,0,0,0,0,0,0,-5.4181,-5.4147,-5.4239,-5.4221,-5.422,-5.4268,-5.4269,-5.4269,-5.4226,-5.4223,-5.4221,-5.4219,-5.4249,-5.4252,-5.4255,-5.4323,0,0,-5.4266,-5.4267,0,0,0,0,0,0,0,0,-5.4179,-5.4185,-5.4223,-5.4222,-5.4221,-5.4241,-5.4247,-5.4287,-5.4226,-5.4223,-5.422,-5.4218,-5.4249,-5.4252,-5.4263,-5.4324,-5.4325,-5.4266,-5.4268,-5.4269,-5.427,0,0,0,0,0,0,0,-5.4177,-5.4183,-5.4251,-5.4224,-5.4223,-5.4212,-5.4215,-5.4254,-5.4249,-5.4223,-5.422,-5.4224,-5.4248,-5.426,-5.4263,-5.4326,-5.4266,-5.4269,-5.4271,-5.4272,-5.4443,-5.4445,0,0,0,0,0,0,-5.4176,-5.4181,-5.425,-5.4251,-5.4194,-5.4216,-5.4218,-5.4237,-5.4248,-5.4248,-5.4226,-5.4222,-5.4255,-5.4259,-5.4264,-5.4342,-5.4269,-5.4273,-5.4275,-5.444,-5.4443,-5.4446,0,0,0,0,0,0,-5.4174,-5.4183,-5.4248,-5.4216,-5.4223,-5.422,-5.4241,-5.4239,-5.425,-5.4251,-5.4249,-5.4239,-5.4253,-5.4259,-5.4308,-5.4343,-5.4274,-5.4277,-5.4437,-5.4441,-5.4445,-5.4499,0,0,0,0,0,0,-5.4172,-5.4182,-5.4207,-5.4216,-5.4225,-5.4292,-5.4243,-5.4241,-5.4256,-5.4251,-5.4262,-5.4262,-5.4252,-5.4303,-5.4312,-5.4346,-5.428,-5.4434,-5.4439,-5.4444,-5.4494,-5.4505,-5.4513,0,0,0,0,0,-5.4169,-5.4222,-5.4209,-5.4217,-5.4256,-5.4294,-5.4299,-5.4286,-5.4259,-5.4284,-5.4285,-5.4262,-5.4339,-5.4309,-5.4318,-5.4353,-5.4432,-5.4438,-5.4443,-5.449,-5.4503,-5.4513,0,0,0,0,0,0,-5.4216,-5.4222,-5.4208,-5.4266,-5.428,-5.4286,-5.4317,-5.43,-5.4322,-5.4316,-5.43,-5.4303,-5.4355,-5.436,-5.4327,-5.4419,-5.4381,-5.4388,-5.4413,-5.4425,-5.4434,-5.4431,-5.4283,0,0,0,0,0,-5.4234,-5.4264,-5.4268,-5.4318,-5.4326,-5.4321,-5.4337,-5.4326,-5.434,-5.4345,-5.4349,-5.4363,-5.4391,-5.4409,-5.4434,-5.4496,-5.4497,-5.4526,-5.4535,-5.4543,-5.4548,-5.4581,-5.4593,-5.4465,-5.4465,-5.4465,0,0,-5.4269,-5.4277,-5.4296,-5.4328,-5.4337,-5.4368,-5.4326,-5.4361,-5.4383,-5.4351,-5.4396,-5.44,-5.4415,-5.4471,-5.4495,-5.4476,-5.4585,-5.455,-5.4556,-5.4558,-5.4588,-5.46,-5.4611,-5.4469,-5.4468,-5.4467,0,0,-5.435,-5.4359,-5.4401,-5.4412,-5.4427,-5.4424,-5.4434,-5.4444,-5.4445,-5.4491,-5.4467,-5.4495,-5.4542,-5.4553,-5.4565,-5.4653,-5.4631,-5.4662,-5.4709,-5.4741,-5.4751,-5.476,-5.4789,-5.48,-5.4668,-5.4668,-5.4668,0,-5.4392,-5.4437,-5.4425,-5.4462,-5.4476,-5.4449,-5.4491,-5.4503,-5.4525,-5.4536,-5.4515,-5.4574,-5.4582,-5.4639,-5.4661,-5.4672,-5.4683,-5.4658,-5.4751,-5.476,-5.4768,-5.4795,-5.4806,-5.4672,-5.4671,-5.4671,-5.4671,0,-5.4488,-5.452,-5.4553,-5.4575,-5.4593,-5.4633,-5.4627,-5.4647,-5.4636,-5.4635,-5.4683,-5.4692,-5.4718,-5.4732,-5.4722,-5.4788,-5.4776,-5.4753,-5.4714,-5.4783,-5.4809,-5.4819,-5.4676,-5.4675,-5.4674,-5.4673,0,0,-5.4595,-5.4612,-5.4624,-5.4633,-5.4649,-5.4674,-5.4713,-5.4739,-5.4756,-5.4774,-5.4805,-5.4847,-5.4826,-5.484,-5.4831,-5.486,-5.4926,-5.4833,-5.4833,-5.4848,-5.4998,-5.5013,-5.5025,-5.4914,-5.4916,-5.4918,-5.4996,0,-5.4673,-5.4739,-5.473,-5.4794,-5.4823,-5.4799,-5.4833,-5.4847,-5.4848,-5.4873,-5.4874,-5.4903,-5.4875,-5.4883,-5.491,-5.4912,-5.4955,-5.4907,-5.4941,-5.4943,-5.4935,-5.5039,-5.5054,-5.5128,-5.5006,-5.5008,-5.5009,0,-5.4772,-5.4793,-5.4859,-5.4871,-5.4883,-5.4913,-5.4936,-5.4961,-5.4976,-5.4975,-5.4992,-5.4978,-5.5017,-5.498,-5.5033,-5.5,-5.5015,-5.5018,-5.5021,-5.502,-5.4978,-5.5039,-5.5151,-5.5161,-5.5025,-5.5024,-5.5023,0,-5.4841,-5.4886,-5.4931,-5.4941,-5.4956,-5.4978,-5.4985,-5.4998,-5.5015,-5.5036,-5.5046,-5.5072,-5.5085,-5.5105,-5.5099,-5.5073,-5.5153,-5.5116,-5.5152,-5.5152,-5.5167,-5.5165,-5.528,-5.5182,-5.5182,-5.5181,-5.5181,0,-5.4927,-5.4968,-5.4962,-5.499,-5.5035,-5.5026,-5.5071,-5.5075,-5.5088,-5.5116,-5.5098,-5.5125,-5.5117,-5.5143,-5.5139,-5.5183,-5.519,-5.5189,-5.5187,-5.5189,-5.5189,-5.5196,-5.5189,-5.5184,-5.5184,-5.5183,-5.5183,0,-5.5009,-5.5008,-5.5055,-5.5066,-5.507,-5.5103,-5.5112,-5.5138,-5.5139,-5.5175,-5.5183,-5.5184,-5.5214,-5.5211,-5.5246,-5.5243,-5.5296,-5.529,-5.5291,-5.5288,-5.5324,-5.5319,-5.5444,-5.5459,-5.5354,-5.5355,-5.5356,0,-5.5063,-5.5094,-5.5108,-5.5126,-5.5135,-5.5163,-5.518,-5.5173,-5.5191,-5.5212,-5.5235,-5.5264,-5.5287,-5.5337,-5.5341,-5.5367,-5.5359,-5.5401,-5.5362,-5.5363,-5.5356,-5.5353,-5.5356,-5.5407,-5.5409,-5.541,-5.541,0,-5.5157,-5.5155,-5.5179,-5.5204,-5.5225,-5.5244,-5.5261,-5.5277,-5.5272,-5.5293,-5.5324,-5.5342,-5.5377,-5.5406,-5.5431,-5.5439,-5.5424,-5.5423,-5.5432,-5.5433,-5.5431,-5.543,-5.5308,-5.5419,-5.5418,-5.5418,-5.5417,-5.5417,-5.5224,-5.525,-5.5265,-5.5293,-5.5306,-5.5323,-5.5347,-5.5352,-5.5378,-5.5405,-5.5401,-5.5435,-5.5451,-5.5483,-5.5494,-5.5521,-5.5505,-5.552,-5.5523,-5.5525,-5.5528,-5.543,-5.5526,-5.5526,-5.5525,-5.5525,-5.5525,0,-5.5315,-5.5324,-5.535,-5.5375,-5.5398,-5.5383,-5.5402,-5.5421,-5.5452,-5.5468,-5.5491,-5.5526,-5.5555,-5.5562,-5.5589,-5.5609,-5.5603,-5.5616,-5.5613,-5.5615,-5.5542,-5.553,-5.5621,-5.5621,-5.5621,-5.5621,-5.5621,-5.5621,-5.5365,-5.5408,-5.5408,-5.5457,-5.5466,-5.5499,-5.5511,-5.5527,-5.5539,-5.558,-5.5603,-5.5608,-5.562,-5.5649,-5.5674,-5.5676,-5.5685,-5.5701,-5.5699,-5.563,-5.562,-5.5611,-5.5599,-5.5704,-5.5704,-5.577,-5.5771,-5.5771]},{"header":{"parameterUnit":"m.s-1","parameterCategory":1,"la1":30.2991,"la2":30.254,"lo1":-89.0895,"lo2":-89.0444,"dy":0.0017,"dx":0.0017,"nx":28,"ny":28,"refTime":"2024-04-07T21:00:00:Z","depth":0,"parameterNumber":3,"parameterNumberName":"V-component_of_WINDS"},"data":[0,0,0,0,0,0,0,0,0,0,0,0,0,0,0,0,0,0,0,0,0,0,0,0,0,0,0,0,0,0,0,0,0,0,0,0,0,0,0,0,0,0,0,0,0,0,0,0,0,0,0,0,0,0,0,0,0,0,3.316,3.316,0,3.3156,3.3156,3.3156,3.3187,3.3188,3.3189,3.319,3.318,3.3179,3.3177,0,0,0,0,0,0,0,0,0,0,0,0,0,3.3191,3.319,3.316,3.316,3.316,3.3156,3.3156,3.3156,3.3187,3.3188,3.3189,3.319,3.318,3.3179,3.3177,0,0,0,0,0,0,0,0,0,0,0,0,0,3.3181,3.319,3.316,3.3175,3.3176,3.3156,3.3156,3.3156,3.3187,3.3188,3.3189,3.319,3.318,3.3179,3.3177,3.314,0,0,3.3172,3.3171,0,0,0,0,0,0,0,0,3.3181,3.318,3.3173,3.3174,3.3175,3.3173,3.3163,3.315,3.3186,3.3182,3.319,3.3191,3.3176,3.3175,3.3171,3.314,3.3139,3.3172,3.3171,3.317,3.317,0,0,0,0,0,0,0,3.3182,3.318,3.3158,3.3173,3.3174,3.3181,3.3181,3.3161,3.3172,3.3183,3.3185,3.3185,3.3177,3.3172,3.3171,3.3139,3.3172,3.3171,3.317,3.3169,3.3079,3.3078,0,0,0,0,0,0,3.3181,3.318,3.3158,3.3158,3.3182,3.3179,3.3179,3.3172,3.3172,3.3173,3.3183,3.3186,3.3175,3.3173,3.3171,3.3129,3.317,3.3169,3.3168,3.3081,3.3079,3.3078,0,0,0,0,0,0,3.3182,3.3179,3.3158,3.317,3.3168,3.3177,3.3169,3.3172,3.3167,3.3172,3.3174,3.3177,3.3176,3.3173,3.3148,3.3129,3.3168,3.3167,3.3082,3.308,3.3078,3.3044,0,0,0,0,0,0,3.3183,3.3179,3.3166,3.3169,3.3167,3.3137,3.3168,3.3171,3.3165,3.3168,3.3167,3.3168,3.3176,3.3151,3.3147,3.3127,3.3165,3.3084,3.3082,3.3079,3.3046,3.3041,3.3035,0,0,0,0,0,3.3184,3.3154,3.3165,3.3162,3.3151,3.3136,3.3134,3.3147,3.3163,3.315,3.3154,3.3168,3.3132,3.3148,3.3144,3.3123,3.3085,3.3082,3.3079,3.3049,3.3042,3.3036,0,0,0,0,0,0,3.3146,3.3155,3.3167,3.3138,3.3137,3.3141,3.3124,3.3138,3.313,3.3133,3.3147,3.3146,3.3119,3.3119,3.3137,3.3089,3.3111,3.3107,3.309,3.3083,3.3078,3.3078,3.3164,0,0,0,0,0,3.3135,3.3123,3.3131,3.3105,3.3104,3.3115,3.3108,3.3118,3.3116,3.3115,3.3116,3.3112,3.31,3.3091,3.308,3.3047,3.3047,3.3031,3.3025,3.3021,3.3017,3.3,3.2993,3.3067,3.3067,3.3067,0,0,3.311,3.3114,3.3106,3.3098,3.3098,3.3085,3.3113,3.3098,3.3088,3.3111,3.3089,3.309,3.3087,3.3058,3.3045,3.3057,3.2997,3.3017,3.3013,3.3012,3.2996,3.2989,3.2983,3.3065,3.3066,3.3066,0,0,3.306,3.3062,3.3041,3.3041,3.3041,3.3049,3.3044,3.3047,3.305,3.3028,3.3046,3.3034,3.3012,3.301,3.3005,3.2957,3.297,3.2952,3.2923,3.2907,3.2901,3.2896,3.2879,3.2873,3.2949,3.2948,3.2948,0,3.3029,3.3012,3.3028,3.3012,3.3009,3.3032,3.3011,3.301,3.3005,3.3001,3.3015,3.299,3.2989,3.2961,3.2949,3.2945,3.2939,3.2952,3.2901,3.2896,3.2891,3.2875,3.2869,3.2946,3.2947,3.2947,3.2947,0,3.2975,3.2962,3.2945,3.2944,3.2938,3.2919,3.2932,3.2924,3.2935,3.2941,3.2919,3.2919,3.2909,3.2903,3.2912,3.2877,3.2884,3.2899,3.2922,3.2882,3.2867,3.2861,3.2943,3.2944,3.2945,3.2945,0,0,3.2899,3.2908,3.2902,3.2902,3.2905,3.2895,3.2877,3.287,3.2864,3.286,3.2846,3.2828,3.2843,3.2838,3.2848,3.2833,3.2796,3.285,3.2851,3.2841,3.2757,3.2746,3.2739,3.2805,3.2804,3.2803,3.2758,0,3.285,3.2823,3.2838,3.2808,3.2797,3.282,3.2805,3.2805,3.281,3.2801,3.2806,3.2794,3.2814,3.2812,3.2799,3.2803,3.2779,3.2807,3.2791,3.279,3.2791,3.2731,3.2718,3.2675,3.2752,3.2751,3.275,0,3.2789,3.2786,3.2756,3.2763,3.2759,3.2745,3.2741,3.2732,3.2732,3.2737,3.2733,3.2747,3.2729,3.2753,3.273,3.2748,3.2743,3.2744,3.2743,3.2741,3.2768,3.2728,3.2662,3.2655,3.2741,3.2742,3.2743,0,3.2738,3.2726,3.2707,3.2706,3.2713,3.2703,3.2706,3.2708,3.2703,3.2699,3.2696,3.2688,3.2684,3.2678,3.2689,3.2705,3.2664,3.2689,3.2667,3.2667,3.2657,3.2657,3.2589,3.2654,3.2654,3.2654,3.2654,0,3.2682,3.2662,3.2684,3.2672,3.2651,3.2669,3.2647,3.2652,3.2654,3.2642,3.2661,3.265,3.2666,3.2656,3.2664,3.2644,3.2641,3.2645,3.2647,3.2643,3.2642,3.2639,3.2642,3.2652,3.2653,3.2653,3.2653,0,3.262,3.2634,3.2615,3.2625,3.2627,3.2611,3.2618,3.2607,3.2615,3.2601,3.2598,3.261,3.26,3.2611,3.26,3.2606,3.2579,3.2585,3.2579,3.2581,3.2559,3.2561,3.2486,3.2478,3.2548,3.2547,3.2546,0,3.2584,3.257,3.2579,3.2574,3.2576,3.2567,3.2564,3.258,3.2575,3.2576,3.2565,3.2557,3.2551,3.2533,3.254,3.2532,3.2539,3.2513,3.2538,3.2535,3.2539,3.254,3.2539,3.2508,3.2507,3.2506,3.2506,0,3.2518,3.2526,3.2521,3.2518,3.2514,3.2512,3.2511,3.2506,3.2523,3.2517,3.2508,3.2504,3.2495,3.2486,3.2481,3.2482,3.2497,3.2499,3.2493,3.2489,3.2486,3.2488,3.2566,3.25,3.25,3.2501,3.2501,3.2501,3.2468,3.2457,3.2463,3.2456,3.2458,3.2458,3.2449,3.2457,3.245,3.2446,3.2456,3.2444,3.2446,3.2441,3.2441,3.2432,3.2443,3.2435,3.2433,3.2431,3.2428,3.2488,3.2431,3.2431,3.2431,3.2431,3.2432,0,3.2403,3.2408,3.2403,3.2403,3.2398,3.2415,3.2416,3.241,3.24,3.2402,3.2397,3.2387,3.238,3.2387,3.2381,3.2372,3.2378,3.237,3.237,3.237,3.2418,3.2424,3.2365,3.2365,3.2365,3.2365,3.2365,3.2365,3.2369,3.2352,3.2361,3.2346,3.2351,3.2342,3.2341,3.2341,3.2342,3.2331,3.2326,3.2331,3.2335,3.233,3.2324,3.2326,3.2323,3.2312,3.2316,3.236,3.2367,3.2373,3.2378,3.2311,3.2311,3.2269,3.2269,3.2269]}]]